NOAA 16 DEB, 41203

Orbit data source: Space-Track

NOAA 16 DEB, 41203 is space debris in SSO originally from a launch on Thu, 21 Sep 2000 UTC launched from the Air Force Western Test Range (AFWTR). Debris objects in space refer to the collection of defunct objects orbiting the Earth. Examples of debris include non-operational satellites, rocket bodies, and fragments generated from explosions, collisions, or faulty payload assembly.

Loading next visibility...
Identifier
41203, 2000-055DG
Orbit
SSO
Country
Flag of USUS
Related business
Manufacturer
Unknown
Mission
Spacecraft
Bus & Motor
Unknown
Mass
Unknown
Launch date (UTC)
2000-09-21 (25 years ago)
Launch vehicle
Unknown
Launch site
Air Force Western Test Range (AFWTR)
Object type
Payload
Rocket body
Debris
Shape & HBR
Unknown shape, 0.1 m
Radar Cross Section
Small (<0.1 m²)

Expand to show TLE details & history
Last TLE update: 3 days ago

TLE from 3 days ago
0 NOAA 16 DEB
1 41203U 00055DG  26035.05799910  .00003158  00000-0  15106-2 0  9998
2 41203  98.6942  80.6866 0034303 151.5959 208.7096 14.19486044522914
Epoch: 2026-02-04T01:23Z
TLE epoch observation values (Epoch: 2026-02-04T01:23:31.122Z)
Latitude
-0.00004°
Longitude
-74.4231°
Altitude
851.707 km
Speed
7.416 km/s
True Right ascension
05h 22m 44s
True Declination
0° 00' 00"
Sunlit
Object was in full shadow at epoch
Visualization orbit readout
Latitude
Unknown
Longitude
Unknown
Altitude
Unknown
Speed
Unknown
Apparent Right ascension
Unknown
Apparent Declination
Unknown
Sunlit
N/A
Visualization observer readout
Local Sidereal Time
00:28:06
Azimuth
Unknown
Elevation
Unknown
Doppler factor
Unknown
Orbital elements
Apogee altitude
848.956 km
Perigee altitude
799.544 km
Semi-major axis
7,202.387 km
Eccentricity
0.00343
Inclination
98.6942°
RAAN
80.6866°
Arg. of periapsis
151.5959°
True anomaly
208.52148°
Mean anomaly
208.7096°
Eccentric anomaly
208.61547°
Mean motion
3.55082 °/min
Orbital period
101.39 mins
BSTAR
0.0015106
Loading maneuver chart data...
Computing Atmospheric mass density...
Loading historical data...
Loading historical data...
Loading historical data...
Loading historical data...
Loading historical data...
Loading historical data...
Loading historical data...

Documentation

Showing up to 5 results
|